Wind_Speed
16 16 16 15 14 14 14 14 14 14 13 13 12 12 12 12 12 12 12 12 12 12 10 10 11 11 11 11 11 11 12 12 11 11 11 9 9 9 8 8 10 12 14 15 14 14 15 17 19 19 18 16 14 11 9 6 4 5 3 3 4 5 7 7 3 11 19 11 5 4 3 3 7 14 16 14 12 12 13 14 15 15 13 17 21 25 30 30
16 16 16 16 15 14 14 14 14 14 13 13 13 13 12 12 12 12 12 12 12 12 11 10 11 10 10 11 11 11 12 11 10 10 10 10 11 10 9 9 9 9 12 13 13 13 13 16 18 19 18 16 13 11 8 5 4 5 1 3 3 5 6 7 5 9 15 10 3 5 6 5 8 13 14 13 14 15 15 15 16 17 18 22 25 27 30 30
16 17 16 16 15 15 14 13 13 13 13 13 13 13 12 12 12 13 12 11 11 12 11 11 11 10 10 11 11 12 12 10 10 10 11 13 13 12 10 10 9 9 11 14 14 14 14 16 17 17 17 16 13 11 10 9 7 4 4 4 5 7 5 7 7 8 13 12 6 5 8 7 10 14 15 15 16 17 16 16 16 19 23 26 27 29 29 29
16 16 17 16 16 15 15 14 14 13 13 13 13 13 13 13 13 13 13 12 11 11 11 11 11 10 9 10 10 11 11 8 9 11 13 14 14 13 12 10 10 10 12 15 17 17 18 19 19 18 17 17 15 14 14 11 9 7 7 3 6 7 6 7 6 6 9 10 9 5 9 10 10 12 16 17 18 19 17 15 14 18 25 26 27 29 28 27
16 16 16 16 16 16 15 15 14 14 13 13 12 13 13 13 13 13 13 13 11 11 11 10 10 10 9 8 9 11 10 7 9 12 13 14 14 14 13 12 12 12 13 15 18 19 19 20 22 22 20 20 19 16 15 11 9 9 5 2 7 6 7 8 7 5 5 7 8 5 8 12 13 12 15 17 17 18 16 15 14 18 22 23 25 27 27 26
16 16 16 16 16 16 16 15 15 15 14 13 13 12 12 12 13 13 13 13 12 11 11 10 9 10 9 8 8 10 10 8 9 12 11 12 14 14 14 13 13 13 14 15 18 20 19 19 21 23 23 23 21 17 14 12 8 7 3 4 8 6 8 9 8 6 3 5 7 6 8 11 13 12 14 16 15 15 14 13 15 18 19 20 24 25 25 25
17 17 17 17 17 16 16 16 15 15 15 14 13 12 12 12 13 13 13 12 12 11 11 10 10 9 8 7 7 9 11 10 10 9 9 12 14 15 15 14 16 15 13 13 17 20 19 20 21 21 22 23 20 18 15 13 9 9 4 3 6 6 9 9 10 10 2 3 5 7 7 9 11 11 12 14 14 14 14 14 14 16 18 21 24 25 23 23
19 18 18 17 17 17 17 16 16 16 15 15 14 13 13 12 13 13 13 12 11 12 11 10 10 9 7 7 7 9 11 11 12 10 9 12 14 15 16 16 16 14 13 12 14 17 20 21 19 20 20 19 17 16 14 10 10 11 4 3 5 5 9 10 11 12 4 0 2 6 7 8 9 11 13 12 13 13 14 15 13 14 19 22 24 25 24 23
20 20 19 18 18 18 17 17 17 16 16 15 15 14 14 13 13 13 13 12 11 11 11 10 10 9 7 6 8 9 9 9 11 12 11 12 13 15 16 16 16 15 14 13 14 17 19 18 17 17 16 16 14 13 10 6 9 9 5 8 8 8 11 12 12 12 7 3 1 4 7 8 9 11 15 13 12 13 14 16 14 15 19 21 24 26 25 23
21 21 20 19 18 18 18 17 17 17 16 16 16 15 15 14 14 13 13 12 11 11 11 11 10 9 8 7 7 8 8 7 8 11 12 12 12 12 14 15 15 16 16 15 15 16 15 14 14 15 15 14 13 12 9 10 10 10 11 11 10 10 13 14 13 13 9 3 1 3 4 9 10 9 12 13 13 14 16 17 15 17 18 20 25 26 24 22
21 21 21 19 19 19 19 18 17 16 16 16 16 16 15 15 15 14 13 13 12 11 11 10 10 9 8 8 7 8 9 7 6 8 10 12 13 12 12 14 15 17 17 16 15 13 13 16 17 19 17 14 12 11 11 10 11 13 14 12 11 11 10 14 16 14 12 8 5 5 4 9 10 6 8 11 13 15 16 16 15 18 18 20 26 27 25 23
21 21 21 20 19 19 20 19 18 17 16 15 16 16 16 16 16 15 14 14 13 12 11 10 10 9 9 8 8 8 9 8 7 7 7 10 12 12 13 13 15 17 18 17 15 14 17 19 20 21 17 15 13 10 10 11 12 14 12 10 13 13 8 12 18 15 13 12 10 9 7 8 7 6 9 10 12 15 17 17 15 18 19 21 26 27 25 23
21 21 21 20 19 19 20 20 19 18 17 15 15 15 15 16 16 15 14 14 13 12 12 11 10 10 9 8 8 8 9 9 8 7 7 8 10 12 13 14 16 17 19 17 16 17 21 21 21 20 16 16 15 10 12 13 13 14 12 9 12 14 13 13 15 16 16 16 13 10 8 7 7 7 9 9 12 15 18 18 16 18 20 22 25 26 24 24
21 21 21 21 20 19 19 19 19 18 17 15 14 14 15 15 16 15 14 14 14 13 13 12 11 10 9 8 8 9 8 8 8 7 7 7 9 11 12 14 16 17 20 19 20 22 24 24 22 22 20 18 15 13 15 15 12 12 12 12 11 13 17 15 11 15 18 17 14 12 11 9 8 9 9 10 13 15 16 18 18 18 19 22 24 24 24 23
20 20 20 20 20 19 18 18 18 16 17 15 13 13 13 14 15 14 14 14 14 13 13 12 10 9 8 8 9 9 8 5 5 6 7 8 9 11 12 14 15 18 21 22 25 27 27 27 25 24 24 20 16 16 17 16 14 12 11 13 12 12 18 20 13 15 18 18 16 14 13 11 9 9 9 12 14 15 16 17 20 19 18 21 24 24 24 23
20 20 20 20 20 19 17 17 17 15 15 14 13 12 12 12 14 13 13 14 13 13 14 12 9 8 7 6 7 8 7 3 4 4 5 7 9 12 15 16 16 19 23 25 27 29 28 28 26 25 26 22 19 18 18 17 16 15 12 13 14 14 17 21 20 19 20 19 19 18 15 14 13 12 11 13 15 16 17 18 21 21 19 21 23 23 24 24
19 19 19 19 19 19 18 17 17 15 14 13 12 11 11 12 12 13 13 13 12 13 13 11 9 8 7 5 6 6 5 3 3 1 2 6 10 12 16 17 17 18 23 26 28 29 29 28 26 24 25 24 22 19 17 18 20 19 16 15 14 14 17 19 20 21 25 25 24 23 22 20 17 14 14 15 15 17 17 18 20 21 20 20 22 23 24 25
19 19 18 18 17 17 17 17 16 14 13 12 11 11 11 10 11 12 12 12 12 13 12 10 10 9 7 6 4 3 4 4 3 2 1 5 9 12 14 17 17 18 23 26 28 29 28 26 23 22 23 25 25 23 20 22 23 21 18 15 11 10 15 19 17 17 23 28 28 27 28 26 22 18 15 15 16 17 16 17 19 19 19 20 21 23 24 26
21 20 19 18 17 16 16 16 14 12 11 10 10 10 8 7 9 11 12 12 13 12 11 11 13 12 10 10 6 3 4 3 2 1 1 5 11 12 13 15 15 17 24 28 27 27 26 24 23 23 24 26 27 27 25 22 20 18 14 13 12 14 17 19 19 16 18 24 29 32 32 30 27 24 19 17 17 16 17 18 19 18 19 21 22 22 24 26
22 21 20 19 18 16 15 15 11 9 8 8 8 8 7 7 10 11 11 12 14 14 12 12 15 16 14 12 8 5 5 4 2 2 2 6 12 14 12 12 14 16 21 26 26 25 24 23 25 26 24 24 25 26 25 20 17 15 13 14 17 20 21 19 16 13 16 24 29 31 34 34 31 28 23 19 18 18 21 22 20 19 20 22 22 22 22 24
22 21 19 19 18 15 14 13 9 6 6 7 7 7 7 8 10 11 10 12 15 17 14 11 12 17 16 12 9 8 7 7 6 5 6 6 12 17 14 12 14 15 17 21 22 20 21 23 25 24 21 19 20 21 21 19 16 14 13 14 17 19 20 18 14 7 8 19 32 33 34 38 35 30 26 22 20 19 20 22 21 22 23 22 22 22 21 21
22 21 18 17 16 13 12 10 7 5 5 6 6 5 7 7 7 8 7 9 15 17 15 12 11 15 15 10 9 8 8 8 8 8 7 5 8 13 14 15 15 14 14 18 18 16 18 23 22 20 18 17 17 17 17 16 14 14 13 15 18 17 16 15 14 7 9 11 27 37 39 42 39 33 29 25 22 18 16 18 19 20 23 23 21 21 21 23
21 20 17 15 13 11 9 7 4 3 4 5 5 5 7 7 6 6 6 8 12 14 14 13 13 12 10 7 8 8 8 9 9 9 6 4 7 9 13 15 13 12 13 16 19 18 17 17 16 15 16 16 15 16 17 16 17 18 18 19 21 17 15 17 13 7 11 13 16 37 44 41 39 33 30 27 22 17 15 16 18 19 20 19 17 19 21 23
22 20 17 14 12 8 6 4 2 4 5 7 7 7 7 6 6 6 7 7 8 10 10 9 11 10 8 6 7 7 11 10 7 9 7 5 9 10 11 11 10 12 13 12 14 18 17 11 10 10 13 15 15 17 17 17 19 19 20 22 23 18 16 19 13 13 15 15 5 33 38 32 37 34 31 29 25 23 18 18 21 22 21 19 18 19 20 22
21 20 17 14 10 7 5 2 6 7 7 7 7 7 4 4 4 4 5 6 4 5 6 7 10 11 8 7 7 8 14 10 3 8 10 8 10 10 10 11 11 12 11 9 10 13 13 9 9 10 12 15 17 17 17 16 17 18 20 21 19 15 13 14 11 15 14 10 7 28 22 18 34 37 33 32 29 28 23 21 23 23 25 25 24 23 21 21
21 19 17 14 9 6 4 5 9 7 7 7 7 4 2 3 1 1 2 3 0 3 6 8 8 8 7 6 7 10 13 9 5 9 10 9 10 9 11 14 13 11 9 10 12 13 10 6 9 11 12 14 16 17 16 17 18 18 18 18 14 12 13 14 12 14 11 2 10 16 8 12 30 36 35 34 32 32 27 25 24 24 26 27 27 26 23 23
21 18 16 14 8 4 2 6 8 7 6 5 6 4 2 1 1 2 1 2 3 6 9 8 5 6 7 5 9 12 10 8 8 9 8 6 8 10 12 15 14 13 12 11 12 13 9 7 9 12 13 16 18 16 14 17 21 20 16 15 14 14 14 16 15 16 17 12 9 6 5 12 26 35 37 36 36 34 31 29 26 26 28 27 26 26 25 24
22 17 15 14 9 4 3 5 8 6 3 3 4 2 1 1 2 4 2 3 5 8 9 7 6 6 5 4 11 12 8 8 9 8 6 3 6 9 11 15 15 15 13 9 10 12 9 7 10 13 15 18 20 16 11 15 20 18 14 14 14 14 13 13 12 13 14 14 15 7 6 8 20 36 39 37 39 37 33 31 28 27 28 28 27 27 26 25
22 16 13 12 9 5 2 3 6 6 3 3 2 2 2 2 4 4 3 4 6 7 7 6 5 3 2 4 10 9 6 8 6 5 3 1 3 7 8 13 16 15 11 7 11 15 11 8 9 11 13 15 17 16 13 15 17 14 12 14 15 13 13 11 9 11 11 7 13 8 2 4 13 28 36 36 39 38 33 27 24 24 25 27 27 27 27 26
21 16 11 10 9 5 2 1 2 4 3 2 2 2 3 4 4 2 2 5 6 5 5 5 3 2 1 6 9 6 5 6 3 1 2 3 0 3 4 10 14 14 11 10 14 14 10 8 7 8 9 10 13 15 15 15 13 12 11 14 17 15 14 12 10 11 9 5 10 5 3 0 4 19 36 37 33 32 28 24 22 24 27 29 28 28 27 26
19 15 10 8 7 5 1 2 2 1 1 2 1 2 5 6 4 2 3 4 3 4 5 6 3 3 4 5 5 5 5 6 2 2 2 1 2 2 0 4 8 10 10 11 16 16 13 11 6 6 6 5 13 16 15 15 12 11 11 11 13 13 11 11 9 8 3 4 10 5 4 4 2 13 29 31 24 21 19 18 18 19 22 26 27 27 27 26
17 13 9 7 6 4 1 2 3 3 3 3 3 5 6 7 8 10 6 3 2 3 4 5 4 4 4 2 2 5 7 7 2 0 3 0 2 1 1 2 3 4 3 4 11 15 16 13 7 7 6 2 12 16 14 15 13 12 10 7 6 3 1 5 4 3 3 5 12 10 7 6 5 8 14 19 21 21 19 17 16 15 16 20 23 25 27 27
14 10 8 7 6 5 2 2 3 5 5 6 6 7 8 8 9 13 13 10 8 7 4 5 6 5 4 4 7 7 7 6 4 3 3 3 2 3 3 2 2 2 1 1 3 6 8 9 7 8 6 5 12 15 12 13 12 13 12 7 6 3 3 2 2 1 3 7 14 15 11 7 8 9 10 12 17 22 23 21 20 19 19 21 22 23 27 29
12 9 9 10 9 7 5 4 6 7 9 9 9 12 16 12 9 12 16 15 12 10 6 6 5 5 5 9 10 6 5 7 3 3 5 8 8 5 5 5 3 2 1 1 2 3 1 4 3 3 3 7 14 12 8 9 9 12 12 8 9 6 3 2 2 2 3 4 10 12 7 3 6 12 14 14 17 21 24 24 23 22 20 21 25 26 28 31
14 12 11 13 12 10 9 9 10 10 11 12 14 19 20 15 12 13 14 13 11 10 8 5 3 4 3 6 6 3 4 6 2 3 6 10 12 9 5 2 1 1 2 1 2 3 2 2 1 3 5 5 13 13 11 11 8 8 10 10 11 11 7 5 4 4 3 1 5 8 6 5 9 13 15 15 18 23 27 29 29 28 23 21 26 30 30 32
16 15 15 16 16 14 14 14 14 13 13 16 20 23 20 15 13 13 12 10 10 11 11 10 7 3 2 6 5 2 3 5 5 9 9 8 10 12 10 7 7 6 3 2 2 3 2 2 1 4 6 4 11 12 9 9 7 6 8 11 14 14 13 9 7 9 6 1 3 8 8 9 11 12 12 15 20 24 28 29 29 29 28 26 25 26 29 32
16 15 16 21 21 19 18 17 16 16 17 20 23 22 18 15 12 10 8 7 7 9 11 12 14 13 8 9 8 6 5 6 6 8 9 6 8 11 10 9 10 8 7 4 3 5 6 6 3 6 9 7 8 14 9 7 8 5 3 5 11 15 17 12 5 3 2 2 3 6 6 8 10 10 11 13 16 21 27 31 32 30 29 30 29 25 26 30
15 16 20 23 22 19 16 16 17 20 20 21 22 20 19 16 13 10 7 5 3 6 9 12 16 16 13 14 14 11 9 10 10 10 11 8 10 12 10 9 8 7 4 2 1 5 8 8 4 7 9 8 6 17 14 9 11 6 6 3 5 6 9 9 5 2 2 2 2 5 7 7 7 11 17 17 14 12 17 22 29 34 33 31 30 26 25 29
16 18 20 21 19 17 15 16 17 18 18 17 17 16 15 14 12 11 10 7 5 6 10 12 13 13 13 15 16 15 15 17 15 12 11 10 11 12 11 8 6 5 3 2 2 4 7 6 5 8 8 5 8 10 6 5 10 9 5 6 7 4 1 0 4 4 3 3 2 2 5 5 17 20 19 16 13 12 12 15 20 31 36 33 29 25 23 27
20 19 17 16 14 14 15 16 17 18 16 13 12 11 9 9 8 6 9 10 8 9 11 8 7 10 12 14 16 18 19 17 16 14 13 12 10 9 9 7 5 5 5 5 4 5 6 6 9 11 10 1 5 7 13 11 3 6 11 12 14 7 2 1 3 4 3 4 3 3 2 12 20 18 20 17 12 11 14 17 19 28 36 34 29 25 23 23
20 18 16 14 13 14 16 16 16 16 13 10 8 8 6 6 4 4 5 7 8 11 12 9 8 10 10 11 14 17 18 15 14 16 17 15 12 10 9 8 6 6 7 6 6 7 7 8 14 16 13 10 7 8 11 9 7 10 14 18 19 12 7 3 2 1 2 3 3 7 4 14 16 12 20 21 13 10 12 16 16 25 34 34 30 26 23 21
17 16 14 13 13 13 17 18 15 13 12 10 8 8 6 3 3 3 4 5 7 11 12 10 10 10 8 9 11 13 16 18 17 17 16 16 16 14 10 9 8 7 7 7 6 7 9 9 14 20 21 20 15 13 13 9 5 4 7 12 14 11 12 9 4 6 7 5 2 6 4 10 13 12 16 18 17 12 4 7 10 19 29 33 33 30 24 20
12 12 10 10 11 9 13 18 15 13 14 9 6 9 8 3 2 5 4 5 5 9 10 9 10 11 9 8 7 9 14 19 19 17 15 14 15 13 9 8 8 7 6 5 4 5 8 10 14 20 24 26 21 13 12 10 4 2 2 9 11 9 13 10 4 6 7 5 6 4 3 5 11 15 13 13 17 15 7 2 8 16 24 32 37 37 28 20
8 10 9 7 5 2 7 15 14 13 14 8 6 11 10 5 1 2 1 1 4 6 8 8 8 10 11 8 8 7 9 12 12 12 12 12 12 10 9 9 9 8 7 7 7 7 7 9 14 15 14 19 17 8 7 12 8 4 6 8 8 8 12 8 2 4 4 4 9 6 3 3 13 17 11 9 12 14 14 11 8 14 19 27 36 37 32 26
8 11 10 6 2 1 6 12 10 10 14 12 12 14 11 8 6 3 3 3 3 4 5 5 4 6 10 9 9 8 5 5 6 5 5 8 8 7 9 10 9 8 7 7 9 10 8 8 10 8 3 5 8 6 9 15 17 15 14 12 10 9 11 9 7 8 5 9 15 10 6 11 16 16 12 8 10 12 16 17 12 13 17 24 33 36 34 34
7 9 9 5 3 2 8 10 7 8 9 7 9 12 10 9 10 6 2 3 3 2 4 5 2 3 7 8 8 8 5 2 2 1 2 6 8 8 9 8 7 6 5 7 8 7 4 4 6 6 5 6 9 11 14 19 23 23 21 17 13 10 9 10 9 6 8 16 18 11 10 17 19 20 17 12 11 10 11 17 17 14 14 20 30 35 36 37
8 10 9 6 5 5 4 4 3 5 6 3 5 9 9 8 8 7 7 6 4 3 4 4 2 2 3 4 4 6 5 5 3 2 4 5 6 6 6 3 3 4 5 7 8 6 2 2 4 6 9 10 12 15 16 19 23 25 25 23 18 13 12 13 11 7 10 16 14 10 14 22 21 20 18 16 13 9 5 9 16 19 14 14 23 31 35 38
11 12 11 9 8 7 5 6 9 6 4 4 4 5 6 7 7 7 8 8 4 3 3 2 3 4 6 3 1 4 2 4 3 3 4 4 4 1 3 2 3 4 4 5 8 6 4 4 5 7 9 11 13 14 16 19 21 23 26 28 26 19 16 17 15 11 9 13 15 16 21 22 18 14 16 19 16 13 10 5 8 16 17 13 18 25 31 36
13 12 11 11 10 6 6 7 9 8 4 3 3 2 6 8 8 7 6 5 5 4 3 4 6 9 11 9 4 3 3 1 2 4 5 6 6 4 4 5 7 8 8 7 8 7 5 5 7 10 12 12 12 13 14 16 20 23 24 27 29 27 21 20 20 14 10 12 16 17 18 17 13 12 15 16 17 19 17 11 4 1 9 13 16 20 22 29
15 12 10 11 11 8 5 5 7 8 6 5 4 5 7 9 9 8 6 4 6 8 9 7 8 10 11 9 6 5 5 2 3 5 6 7 7 8 9 9 9 11 11 11 11 10 9 8 9 12 14 13 12 12 12 12 16 21 23 24 28 31 29 26 23 18 15 14 13 14 17 14 7 7 12 13 14 18 18 16 13 10 3 8 15 18 16 19
17 14 11 10 12 10 8 8 8 8 8 8 7 7 6 8 10 11 10 9 10 13 14 13 10 10 9 7 5 7 7 5 3 3 5 7 7 7 7 7 9 10 10 10 11 11 11 10 11 13 13 14 13 12 12 13 16 21 24 22 21 24 27 25 20 17 19 19 15 16 19 16 7 6 9 12 12 14 17 18 17 15 12 2 9 12 13 13
18 15 12 9 10 9 8 9 7 6 9 10 7 5 5 7 10 10 10 11 13 14 15 15 13 12 10 6 4 7 10 11 10 8 7 6 6 5 5 7 10 13 13 11 10 9 8 9 11 11 11 13 14 13 14 14 14 17 18 13 9 12 16 18 14 13 17 20 19 18 20 18 12 8 10 14 13 11 13 15 15 16 17 11 5 2 5 6
Wind_Direction
319 318 316 315 313 312 311 310 311 311 310 309 308 307 306 305 303 301 300 299 297 292 286 278 268 257 250 244 240 240 238 236 235 233 231 226 225 224 207 204 209 203 200 197 195 194 194 194 192 193 191 191 198 198 197 188 147 109 70 320 344 21 19 14 351 359 10 31 112 147 137 149 167 160 158 161 161 157 156 158 166 172 181 190 180 166 164 167
319 318 317 316 314 312 310 308 308 308 309 308 306 305 304 303 301 299 298 298 298 296 292 286 276 264 255 248 241 239 238 234 232 229 226 222 221 221 208 205 211 205 201 196 190 188 189 194 196 194 190 188 194 198 191 174 142 107 114 280 28 52 17 358 325 352 11 21 70 138 118 128 167 168 167 172 168 166 166 163 171 176 177 179 173 169 170 172
317 317 317 316 315 313 311 308 306 305 305 306 305 303 301 299 297 295 295 296 296 295 295 293 284 273 260 251 245 240 238 234 228 221 216 217 216 216 209 203 205 198 196 190 181 179 180 188 195 193 186 183 189 186 169 163 158 151 210 233 55 56 7 327 295 342 17 18 20 120 126 136 163 170 173 180 174 169 172 175 180 177 173 176 174 173 175 175
315 314 314 314 314 313 311 309 306 303 301 301 301 300 298 296 293 291 291 292 292 293 294 294 290 282 266 254 248 242 239 231 224 220 214 214 212 210 207 202 202 194 192 188 179 178 181 184 184 185 184 182 183 175 167 162 162 187 209 190 46 30 351 318 289 333 19 30 29 96 134 142 155 170 180 184 177 173 177 181 188 178 173 178 178 177 178 177
313 312 311 311 311 311 310 309 306 303 300 298 296 295 295 293 290 288 287 288 288 288 290 292 292 287 277 262 249 242 236 222 221 222 216 212 209 206 202 200 201 197 194 188 183 184 186 187 183 180 180 182 183 177 169 152 155 194 205 41 15 353 316 298 282 312 11 31 26 71 130 148 158 169 182 186 181 176 176 177 181 179 178 181 180 179 179 179
311 310 309 308 308 308 307 307 305 303 300 297 294 290 289 288 287 286 285 285 284 283 284 287 289 289 286 270 252 243 230 210 211 220 216 210 208 204 200 197 199 201 199 190 188 191 187 188 193 184 177 183 182 168 156 142 156 202 212 349 349 332 291 284 270 276 338 9 18 70 113 151 164 169 175 184 189 179 173 175 171 177 187 188 184 182 182 181
308 307 305 305 305 304 304 303 303 301 299 297 293 289 286 284 283 283 283 283 281 280 279 282 286 287 286 274 258 244 229 205 193 203 207 205 204 202 201 197 199 201 198 196 195 196 190 188 196 189 178 181 174 153 149 151 181 228 237 291 318 312 282 282 267 260 270 11 23 65 98 146 165 171 169 179 193 181 172 178 169 171 188 193 190 187 186 185
306 304 302 301 300 300 300 300 299 297 296 295 292 287 283 280 279 279 280 279 278 277 276 278 281 283 285 276 259 247 239 215 191 189 191 194 196 197 199 197 200 196 190 199 200 200 198 190 194 193 177 170 162 146 147 160 197 226 242 303 300 286 269 270 255 246 231 252 27 65 95 139 160 167 165 174 188 181 173 180 176 172 181 191 194 190 191 190
304 303 301 300 298 296 295 295 295 294 293 291 289 285 280 276 274 274 275 275 273 273 273 273 274 278 282 272 260 256 255 234 206 201 196 197 195 191 197 197 196 192 187 191 194 201 203 193 192 188 164 148 155 150 154 198 213 222 280 315 302 281 266 262 246 232 219 259 317 84 103 133 148 161 167 174 183 181 176 179 178 173 179 190 195 194 196 194
304 302 300 298 296 294 293 291 290 290 289 288 287 283 278 272 269 269 270 270 268 268 269 269 269 271 273 266 260 258 256 246 220 208 199 209 210 191 192 196 193 190 186 188 193 200 198 188 180 171 158 153 170 176 188 231 235 240 267 284 284 265 259 257 242 225 208 238 245 131 107 128 138 160 175 180 185 184 179 180 175 170 180 190 194 196 200 198
305 303 301 298 296 293 292 290 288 286 285 285 283 281 277 271 266 263 263 264 263 262 263 263 263 262 263 261 251 246 251 249 234 215 191 204 218 204 195 194 192 189 186 188 191 191 179 171 167 168 172 173 187 205 212 232 247 249 254 258 249 232 246 248 233 222 212 219 197 172 148 138 141 148 171 178 186 190 184 184 178 174 182 189 193 198 200 200
306 304 302 300 298 295 292 290 288 285 283 281 280 278 275 270 265 259 259 260 259 258 257 256 257 255 253 255 248 241 249 250 242 238 201 196 210 209 205 198 190 188 186 185 183 178 167 164 169 173 176 175 183 209 215 221 238 238 241 250 231 210 217 234 228 228 229 226 203 191 190 166 156 150 168 180 188 192 190 187 181 178 183 185 193 199 200 199
309 306 303 301 299 296 293 290 288 286 284 280 277 275 273 269 264 258 256 255 255 255 253 250 248 249 248 249 245 239 247 250 242 243 228 207 208 208 206 200 192 186 182 180 177 169 162 166 177 176 173 176 183 201 203 209 226 225 229 235 222 211 200 209 229 232 230 236 230 224 224 197 182 171 173 185 193 195 192 190 184 180 183 185 192 198 198 198
311 309 307 304 301 298 294 290 288 286 284 282 279 274 269 266 261 257 253 251 251 250 248 246 242 244 244 233 231 231 238 245 239 238 234 215 208 207 202 196 191 184 178 174 171 166 165 174 182 179 179 183 194 208 199 199 212 217 223 217 215 222 198 189 229 233 221 232 242 246 246 230 205 191 181 182 196 203 197 190 188 186 184 186 192 197 199 200
315 312 310 308 306 302 297 292 289 286 283 282 280 274 266 261 258 253 249 247 245 244 243 241 239 239 236 226 230 235 233 227 218 222 223 209 199 194 187 187 187 179 173 173 172 169 171 180 185 185 185 188 199 210 206 203 203 208 226 215 211 226 202 188 209 231 225 225 231 237 241 234 221 213 194 186 194 203 203 191 187 194 192 189 194 198 199 201
317 315 313 311 310 307 303 296 290 286 282 281 280 273 263 255 252 246 243 242 237 237 238 235 234 229 219 214 216 229 235 199 166 192 203 193 185 179 172 173 181 178 172 175 176 174 177 184 189 189 187 190 200 205 210 214 208 206 220 214 208 220 213 201 204 222 235 234 228 228 230 228 224 217 198 191 195 197 203 197 190 198 201 195 197 198 198 199
322 321 319 317 314 310 305 296 290 287 282 280 277 267 258 249 243 238 234 231 229 230 231 225 218 207 197 189 192 219 224 153 123 135 190 187 180 180 173 165 172 177 174 178 180 179 183 188 192 194 191 193 199 202 211 218 210 202 210 216 211 213 220 219 211 213 227 233 230 226 226 232 236 226 202 192 195 195 198 202 198 200 202 201 201 200 200 200
328 329 328 324 320 314 307 297 291 287 282 278 270 260 256 250 241 233 226 223 223 224 224 213 196 186 179 163 156 220 199 121 89 79 204 198 183 184 180 166 167 176 176 179 183 184 187 192 194 197 199 198 198 201 207 208 204 200 207 220 224 227 231 233 231 221 222 229 232 231 226 227 235 231 212 198 196 196 197 203 205 205 205 203 203 204 203 204
330 331 329 326 323 319 312 303 296 287 277 269 258 255 256 247 236 229 224 220 214 212 209 198 184 170 159 148 141 220 197 129 103 105 219 196 180 181 181 170 170 180 181 181 187 190 190 194 196 199 204 206 202 203 205 202 204 208 216 235 251 264 258 250 252 249 241 235 230 231 226 221 225 224 215 205 196 195 198 203 207 210 211 209 208 209 208 206
328 329 328 325 322 321 315 309 303 285 264 248 242 245 237 223 226 228 224 216 208 204 201 197 190 175 163 154 156 204 203 187 196 180 197 182 175 178 180 176 173 181 187 186 189 193 194 198 201 203 206 209 206 205 208 205 206 212 224 243 255 266 263 252 253 259 264 249 232 229 228 220 220 221 218 210 197 195 198 203 208 209 211 212 210 210 210 207
326 326 326 323 321 321 317 312 303 273 245 236 234 235 225 214 227 234 228 218 207 204 207 207 198 187 182 172 168 193 212 223 215 169 158 157 170 178 182 186 180 181 186 184 187 194 202 207 207 207 208 210 210 207 211 214 218 222 229 245 257 263 258 250 244 253 295 256 230 223 222 219 218 219 218 211 202 203 205 205 206 205 208 212 211 209 210 206
328 326 326 322 318 319 316 313 300 264 235 235 232 235 230 216 224 238 241 220 202 206 214 217 218 207 200 188 176 191 200 202 188 155 135 131 165 176 177 186 188 184 180 176 182 194 208 216 212 208 206 208 208 202 207 217 228 236 239 254 261 257 261 257 235 245 342 289 233 219 215 216 218 218 218 218 218 219 220 215 208 205 207 210 210 210 209 205
332 329 329 323 316 317 317 312 290 241 216 221 218 226 228 211 212 236 254 228 204 214 220 222 233 220 201 196 198 207 190 173 176 165 138 145 176 167 163 180 189 185 185 183 186 200 216 219 210 208 208 206 204 197 203 220 232 242 245 254 258 254 271 265 235 259 320 325 254 218 209 208 207 208 212 219 224 221 222 222 215 213 216 216 216 215 212 207
336 333 332 326 318 316 317 307 222 202 210 219 223 229 219 198 200 220 247 246 217 221 224 223 221 194 177 186 184 192 181 172 186 174 156 176 188 173 160 172 184 181 191 196 193 208 219 200 178 202 217 212 209 200 202 218 229 237 240 246 252 253 272 272 269 296 309 346 285 202 195 194 193 197 205 209 213 213 215 219 214 215 222 224 225 223 218 213
337 335 333 329 324 314 311 240 197 205 223 240 258 250 200 169 200 214 240 256 230 214 213 199 189 175 171 173 156 166 172 165 167 168 174 203 200 190 177 177 190 190 196 208 210 223 222 188 175 203 217 214 211 204 203 214 227 236 234 234 245 254 275 284 297 305 309 22 140 185 180 185 192 197 205 206 207 209 213 218 212 211 216 219 221 223 219 214
336 334 331 330 330 318 306 205 201 222 246 274 310 326 82 101 213 224 253 277 137 156 165 164 179 184 173 172 176 177 171 156 143 166 186 216 211 205 192 183 191 197 204 220 230 240 238 212 207 212 220 220 214 210 205 208 227 240 229 220 237 256 275 286 294 300 296 109 159 188 195 199 195 198 205 206 208 208 212 218 212 208 211 214 217 220 219 214
334 333 330 329 333 321 270 203 218 241 251 295 339 357 37 80 80 64 23 11 87 134 148 144 145 161 163 189 195 178 171 162 159 176 199 222 217 213 201 190 191 195 203 222 227 232 233 227 222 217 225 228 221 219 207 200 223 237 217 209 240 258 273 288 287 288 287 273 255 231 188 192 200 204 205 205 207 208 213 218 213 209 211 213 215 218 220 218
334 332 329 327 330 319 258 232 251 262 261 313 327 315 266 221 109 79 73 63 94 127 143 137 112 118 134 182 183 170 164 164 166 192 207 224 223 217 204 193 198 205 209 227 214 198 201 215 223 222 229 234 228 229 216 198 215 225 208 213 244 256 268 291 294 295 302 285 269 253 147 166 205 208 205 205 207 208 216 221 217 215 214 214 217 219 221 221
336 333 329 326 328 321 292 266 276 286 291 299 279 232 215 175 110 82 75 89 110 121 131 138 109 78 72 146 160 149 135 149 162 192 172 43 222 213 209 198 207 215 212 231 210 194 202 211 207 211 225 239 236 234 230 214 216 219 214 228 241 245 258 276 290 304 322 292 259 265 137 158 209 209 203 203 209 212 218 224 223 223 220 218 219 218 221 223
338 337 331 324 327 331 328 232 262 282 272 246 245 204 162 130 104 74 54 84 107 108 120 150 133 41 86 140 145 122 106 139 148 173 129 19 155 168 198 206 217 227 225 229 217 215 235 226 203 201 209 229 227 220 225 226 226 226 228 238 239 240 251 259 275 296 317 289 254 279 42 81 212 205 203 205 212 214 217 224 225 226 225 222 221 218 221 225
341 342 336 326 330 336 325 171 172 230 208 184 206 145 126 107 73 36 55 76 84 81 111 140 126 57 79 114 128 94 101 152 177 276 215 322 3 81 193 220 223 234 238 235 228 233 237 221 210 194 176 204 217 211 214 219 221 225 231 239 237 237 244 249 271 287 298 286 264 273 359 321 231 198 207 215 222 214 213 226 228 230 229 224 225 223 223 227
346 348 346 341 334 334 324 160 151 162 151 133 137 128 123 105 55 24 23 66 87 76 112 122 92 74 65 47 175 103 111 145 140 245 190 360 358 46 314 275 212 210 223 233 235 240 236 230 232 199 165 171 213 209 207 207 211 218 219 214 210 214 230 233 264 263 216 272 274 278 319 305 254 224 221 228 234 223 223 241 247 253 256 243 233 228 225 226
354 359 11 11 358 358 18 100 125 136 123 110 120 107 93 87 48 20 27 51 48 42 91 126 111 109 85 101 140 122 121 139 86 78 134 76 70 161 172 188 185 190 51 55 236 253 241 224 211 196 195 183 193 204 211 208 211 220 219 203 187 131 79 211 257 277 244 275 278 283 300 297 269 256 241 241 242 231 229 242 252 259 267 264 253 238 227 225
13 21 34 32 29 35 45 70 91 106 111 111 108 85 69 60 34 25 40 51 45 45 85 124 128 140 106 101 128 136 145 151 102 55 110 103 109 135 160 169 169 191 239 49 57 356 295 184 146 125 157 181 186 191 202 199 199 216 227 217 202 190 134 185 201 146 183 256 274 284 295 303 286 263 252 259 259 244 238 243 252 258 261 264 262 250 233 224
35 40 43 43 48 52 58 77 90 101 114 112 91 71 63 49 26 21 27 36 49 56 69 92 127 178 145 106 134 173 151 148 120 60 96 109 101 73 60 137 102 79 220 218 47 348 262 197 24 67 92 185 203 196 200 208 201 212 227 225 218 219 213 218 245 238 230 288 283 287 285 277 282 265 251 255 254 246 245 246 248 251 251 250 252 249 238 228
46 49 54 59 66 70 76 88 95 102 110 100 78 64 59 46 24 12 4 11 33 36 41 63 65 48 141 134 129 126 133 136 104 93 105 122 101 65 47 54 47 48 68 71 33 359 266 235 244 159 124 145 201 199 203 216 211 192 199 212 221 225 224 228 254 256 253 328 278 266 270 269 267 261 257 259 252 243 243 247 245 243 241 238 238 241 237 231
55 60 67 70 75 80 85 91 93 95 94 85 74 63 55 46 28 13 0 360 19 26 35 52 47 39 72 111 85 55 103 113 86 102 129 146 102 73 61 63 56 56 70 65 22 354 308 288 278 162 135 107 176 196 183 171 185 168 111 196 216 221 221 220 234 242 192 107 242 241 262 280 272 282 310 310 283 257 248 249 247 242 239 235 234 237 234 229
67 75 76 72 75 79 84 91 88 83 83 82 79 69 54 49 49 51 37 13 22 36 40 46 40 43 67 82 70 65 80 75 71 102 127 122 89 74 65 61 50 45 60 84 328 341 319 299 276 182 158 91 136 187 179 156 168 145 54 90 165 194 213 213 210 193 124 151 231 248 262 296 335 351 357 358 345 301 264 257 252 245 241 236 233 235 234 228
78 84 78 71 76 82 85 87 79 71 75 81 77 64 53 55 63 64 56 54 76 64 49 47 44 50 68 74 73 75 70 69 79 96 103 98 86 72 61 57 39 15 349 293 277 322 328 317 277 216 193 70 83 145 114 79 150 139 88 106 102 81 360 155 185 170 138 181 184 252 250 44 42 25 7 359 354 333 292 271 259 248 243 239 234 229 228 226
90 87 73 62 67 79 89 87 76 71 73 71 62 49 47 61 59 45 49 57 78 76 58 58 64 59 67 77 76 71 67 72 82 81 78 83 85 70 57 50 23 343 312 298 291 292 313 313 280 239 207 167 44 51 30 23 64 52 41 51 49 35 18 42 197 171 163 183 139 209 233 63 53 27 18 19 8 342 302 274 256 245 242 240 238 230 223 224
91 82 69 62 62 77 93 91 83 80 70 56 57 46 36 55 36 6 52 71 87 87 75 78 84 65 64 83 79 67 67 74 77 75 75 77 74 62 44 25 1 333 310 308 307 301 309 306 288 272 250 248 284 337 356 355 7 36 51 51 44 47 66 72 217 190 214 222 163 201 200 66 56 22 25 29 21 4 319 286 256 239 235 235 239 235 229 227
84 75 71 67 67 85 98 91 84 80 67 57 61 53 37 55 61 58 113 134 114 102 98 89 81 75 74 82 77 73 77 77 73 72 73 73 73 67 47 20 0 341 330 342 353 337 324 311 294 284 271 261 273 307 318 319 352 87 97 60 57 68 52 30 326 339 342 314 290 228 204 75 56 29 33 32 30 41 357 280 237 222 224 228 233 233 232 232
79 75 75 63 62 87 101 95 89 81 79 79 57 42 29 13 97 103 135 163 122 101 103 88 75 79 81 88 101 99 91 88 82 74 68 65 65 60 43 24 7 346 336 344 350 330 322 315 304 292 277 264 265 290 295 275 268 155 114 48 59 57 25 14 312 329 351 358 358 319 202 90 37 21 28 27 28 48 75 142 189 199 209 218 225 227 226 229
70 72 78 74 76 103 93 96 103 92 85 83 45 37 24 357 46 115 84 114 106 97 95 80 74 84 87 107 152 139 104 106 102 83 65 54 50 43 32 24 8 352 350 346 329 323 325 316 313 314 298 272 263 273 272 255 262 308 343 12 31 16 7 13 348 345 19 23 358 338 217 354 357 355 359 10 21 43 64 77 140 180 192 206 216 219 218 221
52 67 75 83 128 197 86 95 116 109 91 85 68 51 29 19 41 54 19 22 63 101 110 93 85 106 107 122 166 171 139 118 121 107 61 41 35 27 21 16 4 353 350 334 324 327 327 310 308 322 338 286 280 305 316 303 301 304 313 330 344 352 2 7 353 354 7 338 327 314 285 306 321 327 332 349 6 26 56 69 100 156 179 196 205 209 212 217
43 65 80 109 133 101 102 107 124 130 118 104 78 59 43 45 49 50 53 40 54 132 162 149 154 174 146 138 150 156 161 156 137 161 5 17 14 14 18 12 5 12 351 320 327 337 324 304 303 292 270 278 295 300 303 304 303 299 299 308 321 331 341 346 340 340 345 328 314 300 299 310 324 337 335 328 337 360 45 63 77 113 155 184 197 203 207 214
50 64 77 108 95 55 89 105 78 122 156 175 92 67 55 60 58 58 68 62 67 140 170 167 189 221 154 151 141 131 163 209 221 316 354 13 10 22 38 9 343 23 360 330 345 5 345 310 303 285 275 274 282 287 283 280 287 295 293 293 307 321 319 320 317 308 328 325 306 291 310 322 336 347 335 317 318 335 10 51 64 75 97 153 185 197 204 211
50 63 68 77 71 37 29 50 50 73 151 179 129 79 35 40 58 64 65 54 52 120 139 111 87 71 58 47 123 119 150 213 233 306 326 352 353 15 85 51 333 355 358 333 339 352 354 338 313 292 281 272 273 280 281 276 277 284 285 284 292 303 308 306 296 289 313 313 298 302 314 322 331 333 322 314 309 307 309 329 69 70 70 108 164 187 198 207
47 62 70 76 82 64 33 44 45 49 86 137 139 72 19 30 48 55 58 48 32 37 36 43 73 75 53 36 42 66 49 64 37 345 326 343 354 338 351 360 341 338 343 334 332 342 345 325 308 295 283 276 279 285 286 282 277 278 279 278 279 282 287 293 288 283 297 299 295 302 309 315 321 308 302 307 304 301 305 304 271 121 64 88 135 162 179 196
50 61 75 80 86 82 45 26 16 19 53 81 79 70 46 37 45 40 28 34 40 34 33 46 78 80 58 39 30 27 22 27 37 8 336 337 351 341 336 340 337 338 342 340 335 334 328 316 307 304 294 281 284 297 297 290 280 274 271 268 269 270 271 280 288 286 286 286 285 289 293 299 306 281 277 284 291 293 295 297 286 263 278 79 111 123 128 164
49 53 62 67 71 63 26 8 1 7 41 58 62 76 66 46 51 46 38 53 62 53 46 47 60 65 55 40 13 2 356 336 306 294 301 309 320 323 324 330 333 330 330 331 326 317 314 308 302 308 305 291 292 305 307 300 286 275 270 270 273 274 273 280 291 290 282 280 276 275 280 281 260 229 258 268 272 281 284 287 286 273 268 278 110 100 82 108
46 45 44 46 59 60 28 7 1 16 40 47 53 77 81 67 58 51 54 62 61 55 47 40 41 44 39 26 354 337 333 323 305 286 282 286 290 304 308 307 306 300 293 293 298 301 301 298 299 303 297 293 300 304 308 315 301 277 268 269 282 286 278 276 278 273 272 275 274 270 269 269 259 238 253 268 269 271 275 276 276 273 271 262 214 223 341 45
Height
3153 3152 3151 3150 3149 3148 3148 3147 3146 3146 3145 3144 3144 3143 3143 3142 3142 3141 3141 3140 3140 3140 3140 3140 3140 3140 3140 3141 3141 3141 3142 3142 3143 3144 3145 3146 3146 3147 3148 3149 3149 3150 3151 3152 3154 3155 3156 3158 3159 3160 3161 3163 3165 3166 3166 3167 3167 3166 3167 3167 3168 3169 3169 3169 3169 3169 3169 3169 3168 3168 3169 3170 3172 3173 3175 3176 3177 3178 3179 3179 3181 3182 3184 3186 3188 3188 3188 3189
3152 3151 3150 3149 3148 3147 3146 3146 3145 3144 3144 3143 3143 3142 3142 3141 3140 3140 3139 3139 3139 3138 3138 3138 3138 3138 3139 3139 3140 3140 3140 3141 3142 3143 3144 3145 3145 3145 3147 3148 3148 3149 3150 3152 3154 3155 3156 3157 3158 3159 3161 3163 3164 3165 3166 3166 3166 3166 3166 3168 3168 3169 3170 3170 3170 3170 3170 3169 3169 3169 3170 3170 3172 3173 3174 3176 3176 3177 3178 3178 3180 3180 3182 3186 3187 3188 3189 3189
3151 3149 3148 3147 3147 3146 3145 3144 3143 3143 3142 3142 3141 3141 3140 3140 3139 3138 3138 3138 3137 3137 3137 3137 3136 3137 3137 3138 3138 3138 3139 3140 3140 3141 3142 3143 3144 3144 3145 3147 3148 3149 3149 3151 3152 3154 3155 3156 3157 3159 3161 3162 3164 3165 3165 3165 3166 3166 3167 3168 3168 3169 3170 3169 3170 3171 3170 3170 3170 3171 3171 3171 3173 3174 3174 3175 3176 3177 3177 3177 3178 3179 3181 3184 3186 3187 3188 3189
3149 3148 3147 3146 3145 3144 3144 3143 3142 3141 3141 3140 3140 3139 3139 3138 3138 3137 3137 3136 3136 3135 3135 3135 3135 3135 3136 3136 3137 3137 3138 3138 3139 3139 3140 3141 3142 3143 3144 3146 3147 3148 3148 3150 3151 3152 3153 3154 3156 3158 3160 3162 3163 3164 3164 3165 3166 3167 3167 3167 3168 3169 3170 3170 3170 3172 3171 3170 3170 3171 3171 3172 3173 3174 3174 3175 3175 3176 3176 3177 3178 3179 3180 3183 3184 3186 3187 3188
3148 3147 3145 3144 3144 3143 3142 3141 3141 3140 3139 3139 3138 3138 3137 3137 3136 3136 3135 3135 3135 3134 3134 3133 3133 3133 3134 3135 3135 3135 3136 3137 3137 3137 3138 3139 3141 3142 3143 3144 3146 3147 3147 3149 3150 3151 3152 3153 3154 3155 3158 3161 3162 3163 3163 3164 3165 3166 3166 3167 3167 3169 3171 3171 3171 3172 3172 3171 3171 3171 3171 3172 3172 3173 3174 3175 3176 3176 3176 3178 3179 3180 3181 3183 3184 3186 3187 3188
3146 3145 3144 3143 3142 3141 3140 3140 3139 3138 3138 3137 3137 3136 3135 3135 3134 3134 3134 3133 3133 3133 3132 3132 3132 3132 3132 3133 3134 3134 3135 3136 3136 3136 3137 3138 3139 3141 3142 3143 3145 3145 3146 3148 3149 3150 3151 3153 3154 3155 3156 3159 3161 3162 3163 3164 3165 3165 3165 3166 3167 3169 3171 3172 3172 3173 3172 3172 3172 3171 3171 3172 3173 3173 3174 3177 3177 3177 3177 3178 3179 3182 3183 3185 3185 3186 3187 3189
3145 3144 3142 3141 3140 3139 3138 3138 3137 3136 3136 3135 3135 3134 3134 3133 3132 3132 3132 3132 3132 3131 3131 3131 3131 3131 3131 3131 3132 3132 3133 3135 3135 3135 3136 3137 3137 3139 3140 3142 3143 3144 3146 3147 3148 3149 3150 3152 3154 3155 3156 3158 3160 3161 3162 3163 3165 3165 3165 3166 3167 3169 3170 3171 3172 3173 3173 3173 3173 3172 3172 3172 3173 3174 3175 3176 3178 3178 3178 3177 3178 3181 3184 3185 3186 3187 3188 3189
3142 3141 3140 3139 3138 3137 3137 3136 3135 3134 3134 3134 3133 3133 3132 3131 3131 3130 3130 3130 3130 3130 3130 3130 3130 3130 3130 3130 3130 3131 3131 3134 3135 3135 3135 3136 3137 3138 3139 3141 3142 3143 3145 3146 3148 3149 3150 3151 3154 3155 3156 3157 3160 3161 3163 3164 3165 3164 3164 3166 3167 3168 3171 3172 3172 3173 3173 3173 3174 3173 3173 3173 3174 3175 3175 3176 3177 3178 3178 3177 3178 3181 3183 3184 3186 3187 3188 3189
3139 3139 3138 3137 3136 3135 3134 3134 3133 3132 3132 3131 3131 3131 3130 3130 3129 3129 3128 3128 3128 3128 3128 3128 3128 3128 3129 3129 3129 3129 3130 3132 3134 3134 3135 3135 3136 3137 3138 3139 3141 3142 3144 3145 3147 3148 3149 3151 3153 3156 3156 3158 3159 3161 3163 3164 3164 3164 3165 3166 3167 3169 3171 3171 3172 3172 3172 3173 3174 3173 3173 3174 3174 3175 3176 3176 3177 3178 3178 3178 3179 3181 3182 3184 3185 3187 3188 3189
3137 3136 3135 3134 3133 3132 3132 3131 3131 3130 3130 3129 3129 3129 3128 3128 3128 3127 3127 3126 3126 3126 3126 3127 3127 3127 3128 3128 3128 3128 3128 3130 3132 3133 3134 3134 3134 3136 3137 3138 3139 3141 3142 3144 3145 3146 3149 3151 3153 3155 3156 3157 3158 3159 3161 3163 3163 3164 3165 3166 3166 3168 3169 3169 3170 3171 3172 3173 3174 3173 3173 3174 3174 3175 3175 3176 3177 3178 3178 3179 3179 3181 3182 3183 3185 3186 3187 3189
3135 3134 3133 3132 3131 3130 3129 3128 3128 3128 3127 3127 3127 3126 3126 3126 3125 3125 3125 3125 3124 3125 3125 3125 3125 3126 3126 3126 3127 3127 3127 3128 3129 3130 3132 3132 3133 3134 3135 3137 3138 3140 3141 3143 3144 3146 3149 3151 3153 3154 3155 3155 3157 3159 3160 3162 3162 3162 3163 3164 3165 3167 3168 3166 3168 3170 3171 3173 3173 3174 3174 3174 3175 3175 3176 3176 3177 3177 3178 3179 3179 3181 3182 3183 3185 3186 3187 3188
3133 3131 3130 3129 3129 3128 3127 3126 3125 3125 3125 3125 3124 3124 3123 3123 3123 3123 3123 3123 3123 3123 3123 3123 3123 3124 3124 3125 3126 3126 3126 3126 3127 3128 3130 3131 3132 3133 3134 3136 3137 3138 3140 3142 3144 3146 3149 3151 3152 3153 3154 3155 3156 3158 3159 3160 3161 3161 3162 3163 3164 3166 3166 3165 3166 3168 3170 3171 3172 3173 3173 3173 3174 3175 3175 3175 3176 3177 3178 3179 3180 3181 3182 3183 3185 3185 3187 3188
3130 3129 3128 3127 3126 3125 3124 3123 3123 3122 3122 3122 3122 3121 3121 3121 3121 3121 3121 3121 3121 3121 3121 3121 3122 3122 3123 3124 3124 3125 3125 3125 3126 3126 3128 3129 3130 3131 3133 3134 3136 3137 3139 3142 3144 3146 3148 3150 3151 3153 3154 3154 3155 3156 3157 3158 3159 3159 3161 3161 3162 3164 3165 3165 3165 3167 3169 3169 3170 3171 3172 3173 3173 3174 3174 3174 3175 3176 3177 3179 3180 3181 3182 3183 3184 3185 3186 3188
3128 3126 3125 3124 3124 3123 3122 3121 3120 3120 3119 3119 3119 3119 3119 3118 3118 3118 3119 3119 3119 3119 3119 3119 3120 3121 3122 3122 3123 3123 3124 3124 3124 3125 3126 3127 3128 3130 3131 3133 3135 3136 3138 3141 3143 3145 3147 3149 3150 3151 3152 3152 3153 3154 3155 3156 3157 3158 3159 3159 3161 3162 3164 3164 3164 3165 3167 3168 3170 3170 3171 3171 3172 3173 3174 3174 3174 3175 3176 3177 3179 3180 3181 3182 3183 3184 3186 3187
3126 3124 3123 3122 3121 3120 3119 3118 3117 3117 3117 3117 3117 3117 3116 3116 3116 3116 3116 3116 3117 3117 3116 3117 3118 3119 3120 3121 3121 3121 3122 3123 3123 3124 3125 3126 3127 3128 3130 3131 3134 3135 3137 3139 3141 3143 3145 3146 3147 3148 3150 3151 3152 3153 3154 3155 3156 3157 3157 3158 3160 3161 3162 3164 3164 3163 3164 3166 3169 3170 3170 3170 3171 3171 3172 3173 3173 3174 3175 3176 3177 3179 3180 3181 3182 3183 3185 3187
3124 3122 3121 3120 3119 3118 3117 3116 3115 3114 3114 3114 3114 3114 3114 3113 3113 3113 3114 3114 3115 3115 3114 3115 3117 3118 3119 3120 3120 3120 3121 3122 3122 3123 3123 3124 3126 3127 3128 3130 3133 3134 3136 3138 3140 3142 3143 3144 3145 3147 3148 3150 3151 3152 3153 3154 3155 3156 3156 3156 3158 3160 3161 3163 3164 3163 3163 3165 3167 3168 3169 3168 3168 3169 3170 3171 3171 3172 3173 3175 3176 3177 3179 3180 3181 3182 3184 3186
3122 3121 3119 3118 3117 3116 3115 3113 3112 3112 3111 3111 3112 3111 3111 3111 3111 3111 3111 3112 3112 3112 3113 3114 3115 3116 3117 3118 3119 3120 3120 3121 3121 3122 3123 3123 3124 3126 3127 3128 3131 3133 3135 3137 3139 3141 3142 3143 3144 3146 3147 3149 3150 3152 3153 3152 3153 3154 3154 3155 3157 3159 3160 3161 3162 3164 3164 3164 3165 3167 3167 3166 3166 3167 3168 3168 3169 3170 3171 3173 3175 3176 3178 3179 3180 3181 3182 3184
3121 3119 3118 3116 3115 3114 3112 3110 3110 3110 3109 3109 3109 3108 3109 3109 3109 3109 3109 3110 3110 3111 3112 3113 3114 3115 3116 3117 3118 3119 3119 3120 3121 3121 3122 3123 3123 3125 3126 3127 3130 3132 3134 3136 3138 3139 3141 3142 3144 3145 3146 3147 3148 3149 3150 3150 3151 3152 3154 3155 3156 3158 3158 3158 3160 3163 3163 3163 3164 3165 3165 3165 3166 3166 3166 3167 3168 3168 3169 3171 3173 3175 3177 3178 3179 3180 3181 3182
3119 3118 3116 3115 3113 3112 3110 3108 3107 3107 3107 3106 3106 3106 3107 3107 3107 3107 3108 3108 3109 3109 3110 3111 3112 3112 3114 3115 3116 3117 3118 3119 3120 3121 3122 3122 3123 3124 3125 3126 3128 3131 3132 3134 3136 3138 3139 3141 3142 3143 3144 3145 3146 3147 3148 3150 3152 3153 3154 3155 3155 3155 3155 3155 3157 3161 3162 3162 3163 3162 3162 3163 3164 3165 3165 3166 3167 3168 3169 3170 3171 3173 3175 3176 3177 3178 3179 3181
3118 3116 3115 3113 3112 3110 3108 3106 3106 3105 3104 3104 3104 3104 3105 3105 3105 3105 3106 3106 3107 3108 3109 3109 3110 3110 3111 3112 3114 3116 3117 3118 3120 3121 3121 3122 3122 3123 3125 3126 3127 3129 3131 3132 3135 3137 3139 3139 3139 3140 3142 3144 3146 3147 3149 3150 3152 3153 3154 3154 3154 3153 3151 3152 3155 3158 3160 3160 3158 3159 3160 3161 3162 3163 3164 3165 3165 3166 3167 3168 3168 3170 3171 3173 3175 3176 3178 3180
3116 3114 3113 3111 3110 3108 3107 3105 3104 3103 3103 3103 3103 3103 3103 3103 3103 3103 3104 3105 3105 3106 3107 3108 3109 3109 3110 3111 3112 3114 3116 3118 3119 3120 3120 3121 3121 3123 3124 3126 3126 3128 3130 3132 3134 3136 3137 3137 3137 3139 3142 3144 3146 3148 3149 3150 3152 3153 3154 3153 3152 3151 3149 3149 3152 3155 3157 3156 3154 3155 3157 3158 3159 3161 3162 3163 3163 3163 3164 3165 3165 3167 3169 3171 3173 3175 3177 3179
3114 3112 3111 3110 3108 3107 3105 3104 3103 3102 3102 3102 3102 3102 3101 3101 3102 3102 3103 3103 3104 3105 3106 3107 3108 3109 3110 3110 3111 3113 3115 3117 3118 3119 3119 3120 3121 3122 3124 3125 3126 3127 3129 3131 3133 3134 3134 3134 3136 3139 3142 3143 3145 3147 3148 3149 3151 3152 3152 3152 3150 3149 3149 3148 3149 3152 3154 3154 3151 3151 3152 3153 3156 3158 3160 3160 3161 3162 3163 3164 3165 3166 3168 3169 3171 3173 3175 3177
3112 3110 3109 3108 3106 3105 3104 3103 3102 3102 3101 3101 3100 3100 3100 3100 3101 3101 3101 3102 3103 3104 3104 3106 3107 3108 3109 3110 3111 3113 3114 3116 3117 3117 3118 3119 3121 3122 3123 3124 3126 3127 3128 3129 3130 3132 3132 3133 3136 3139 3140 3142 3143 3145 3146 3147 3148 3149 3150 3150 3147 3147 3148 3146 3146 3149 3150 3150 3149 3148 3149 3151 3155 3158 3159 3160 3161 3163 3164 3165 3166 3167 3168 3169 3170 3172 3173 3174
3111 3109 3107 3106 3105 3104 3103 3102 3101 3101 3100 3099 3099 3098 3099 3099 3100 3100 3101 3101 3102 3102 3103 3105 3106 3107 3108 3109 3110 3112 3113 3115 3115 3116 3117 3119 3120 3121 3122 3124 3125 3126 3128 3129 3130 3131 3131 3133 3135 3137 3139 3140 3141 3143 3144 3145 3146 3147 3147 3147 3145 3145 3147 3146 3146 3147 3147 3147 3145 3145 3149 3152 3154 3157 3158 3160 3162 3163 3164 3165 3166 3167 3168 3169 3170 3170 3171 3173
3109 3107 3106 3105 3104 3103 3102 3101 3101 3100 3099 3099 3099 3099 3099 3099 3099 3100 3100 3100 3101 3101 3102 3103 3105 3106 3107 3108 3110 3111 3112 3114 3114 3115 3117 3119 3120 3121 3122 3123 3124 3125 3127 3129 3130 3131 3131 3133 3134 3135 3137 3138 3140 3141 3142 3143 3144 3145 3145 3144 3144 3144 3145 3146 3147 3146 3146 3148 3146 3145 3151 3153 3154 3155 3156 3158 3159 3160 3162 3164 3164 3165 3166 3167 3168 3168 3169 3171
3108 3106 3104 3103 3103 3102 3101 3100 3100 3099 3099 3099 3100 3100 3099 3099 3099 3099 3100 3100 3100 3101 3102 3103 3105 3106 3107 3108 3109 3110 3112 3113 3114 3115 3117 3118 3119 3120 3121 3122 3123 3125 3127 3128 3129 3129 3130 3131 3132 3134 3135 3137 3138 3139 3140 3141 3142 3142 3142 3142 3143 3143 3143 3144 3146 3145 3145 3149 3150 3149 3152 3154 3154 3154 3155 3156 3157 3158 3160 3162 3162 3163 3164 3165 3165 3166 3167 3169
3107 3105 3103 3102 3101 3101 3100 3100 3099 3099 3100 3100 3100 3100 3100 3099 3098 3099 3099 3100 3101 3101 3102 3104 3105 3106 3107 3108 3108 3110 3111 3112 3113 3115 3116 3117 3119 3119 3120 3121 3122 3123 3125 3126 3126 3127 3128 3130 3131 3132 3134 3135 3136 3137 3138 3139 3141 3139 3139 3141 3142 3142 3142 3142 3143 3143 3143 3145 3148 3149 3150 3151 3152 3151 3153 3155 3156 3157 3158 3159 3161 3161 3162 3162 3163 3164 3165 3167
3105 3104 3102 3101 3100 3100 3099 3099 3099 3099 3100 3101 3100 3099 3099 3098 3099 3099 3099 3101 3102 3102 3103 3105 3105 3106 3107 3107 3108 3110 3111 3112 3113 3114 3116 3117 3117 3118 3119 3120 3121 3121 3122 3123 3124 3125 3126 3127 3129 3131 3132 3132 3134 3135 3136 3138 3138 3138 3138 3139 3141 3141 3141 3141 3141 3141 3141 3141 3143 3145 3147 3149 3149 3148 3151 3155 3156 3156 3156 3156 3158 3158 3159 3160 3160 3162 3163 3165
3103 3102 3101 3100 3099 3099 3099 3099 3098 3098 3099 3100 3099 3099 3099 3099 3099 3099 3099 3101 3103 3102 3104 3105 3106 3107 3107 3107 3109 3110 3111 3112 3113 3114 3115 3116 3116 3117 3118 3119 3119 3120 3120 3121 3121 3122 3124 3125 3126 3128 3129 3130 3132 3133 3135 3136 3137 3137 3138 3138 3140 3141 3141 3140 3140 3140 3140 3139 3139 3142 3145 3147 3147 3147 3150 3154 3154 3154 3153 3154 3155 3155 3156 3157 3158 3160 3162 3164
3102 3100 3100 3099 3098 3098 3098 3098 3098 3098 3098 3098 3099 3099 3099 3099 3100 3100 3100 3102 3103 3104 3105 3106 3106 3107 3107 3108 3109 3110 3111 3112 3113 3114 3115 3115 3116 3117 3117 3118 3118 3119 3120 3120 3120 3121 3122 3123 3124 3126 3127 3129 3130 3131 3133 3135 3136 3137 3138 3137 3138 3140 3140 3140 3140 3139 3140 3139 3138 3140 3142 3144 3145 3146 3147 3149 3149 3149 3150 3152 3153 3153 3154 3156 3157 3159 3160 3162
3101 3099 3098 3098 3097 3097 3097 3097 3097 3097 3098 3098 3099 3099 3099 3100 3100 3100 3102 3104 3105 3105 3106 3106 3107 3108 3108 3108 3109 3110 3111 3112 3113 3114 3114 3115 3116 3116 3117 3117 3117 3118 3119 3119 3119 3119 3121 3123 3124 3125 3126 3127 3128 3129 3131 3133 3135 3136 3136 3136 3136 3137 3138 3139 3139 3140 3141 3139 3137 3139 3141 3141 3143 3144 3144 3145 3145 3146 3148 3149 3150 3151 3152 3153 3155 3157 3159 3160
3100 3099 3098 3097 3097 3097 3097 3097 3097 3097 3098 3098 3099 3100 3100 3100 3101 3102 3103 3103 3105 3107 3107 3107 3108 3108 3108 3108 3109 3110 3111 3112 3113 3113 3114 3115 3115 3115 3116 3116 3116 3117 3118 3118 3118 3118 3119 3122 3123 3124 3125 3126 3127 3128 3129 3131 3132 3134 3134 3134 3135 3136 3137 3139 3139 3140 3140 3138 3135 3137 3140 3140 3140 3142 3143 3144 3144 3146 3147 3147 3148 3150 3150 3151 3153 3155 3156 3158
3100 3098 3098 3097 3097 3097 3097 3097 3097 3098 3098 3099 3100 3101 3100 3100 3102 3105 3104 3104 3105 3107 3107 3107 3107 3108 3108 3108 3109 3110 3111 3112 3113 3113 3114 3114 3114 3115 3115 3116 3116 3116 3117 3117 3117 3117 3119 3120 3121 3122 3123 3124 3125 3127 3128 3129 3130 3131 3133 3134 3134 3135 3138 3140 3140 3140 3140 3137 3135 3136 3138 3139 3139 3140 3142 3143 3144 3145 3146 3147 3148 3149 3149 3150 3152 3153 3155 3156
3100 3099 3098 3098 3098 3098 3098 3098 3098 3099 3100 3101 3102 3101 3100 3102 3104 3105 3105 3105 3105 3106 3106 3106 3106 3107 3108 3109 3109 3110 3111 3112 3113 3113 3113 3113 3114 3114 3115 3115 3116 3116 3117 3117 3118 3118 3118 3119 3119 3121 3121 3121 3122 3124 3126 3128 3129 3130 3131 3133 3134 3134 3137 3139 3139 3139 3139 3138 3137 3137 3138 3138 3138 3138 3140 3142 3144 3145 3145 3146 3146 3147 3148 3148 3150 3152 3154 3155
3101 3100 3099 3099 3099 3099 3099 3099 3100 3101 3101 3102 3102 3101 3101 3105 3107 3106 3105 3106 3106 3106 3106 3106 3106 3106 3108 3109 3110 3110 3111 3112 3113 3112 3113 3113 3114 3114 3115 3115 3116 3116 3116 3117 3118 3119 3119 3118 3119 3120 3120 3120 3121 3122 3124 3127 3128 3129 3130 3131 3133 3133 3135 3136 3137 3137 3138 3140 3139 3139 3139 3139 3138 3138 3139 3141 3142 3143 3143 3144 3145 3145 3146 3147 3147 3149 3151 3153
3102 3101 3101 3101 3100 3100 3101 3101 3102 3103 3103 3103 3101 3102 3105 3108 3108 3107 3108 3108 3107 3107 3106 3105 3106 3106 3107 3109 3110 3110 3110 3112 3113 3112 3113 3114 3114 3115 3116 3116 3116 3116 3116 3117 3118 3118 3118 3118 3119 3120 3120 3120 3121 3123 3125 3126 3127 3128 3129 3130 3132 3133 3134 3135 3136 3136 3138 3141 3141 3139 3139 3140 3139 3139 3139 3140 3140 3140 3141 3141 3141 3142 3144 3144 3144 3146 3148 3150
3104 3103 3103 3102 3102 3103 3104 3104 3104 3104 3104 3103 3103 3105 3108 3109 3109 3109 3109 3108 3108 3108 3107 3107 3107 3107 3107 3108 3110 3110 3110 3111 3112 3112 3113 3114 3114 3116 3117 3117 3117 3117 3116 3117 3118 3118 3118 3118 3118 3119 3120 3120 3120 3123 3123 3122 3124 3127 3129 3130 3130 3131 3133 3134 3136 3136 3138 3141 3140 3138 3139 3140 3140 3139 3139 3138 3137 3137 3139 3139 3138 3139 3140 3141 3142 3143 3145 3147
3105 3105 3105 3104 3104 3105 3106 3106 3106 3105 3104 3104 3105 3108 3110 3110 3110 3109 3109 3109 3109 3110 3109 3109 3109 3108 3107 3108 3110 3110 3110 3111 3111 3112 3113 3114 3116 3118 3118 3118 3118 3117 3117 3118 3118 3118 3118 3118 3118 3118 3119 3119 3119 3121 3121 3121 3124 3126 3127 3128 3128 3129 3131 3133 3134 3136 3138 3140 3139 3137 3138 3140 3141 3139 3137 3135 3133 3131 3132 3133 3133 3134 3136 3137 3139 3141 3143 3144
3107 3107 3107 3107 3106 3107 3107 3107 3107 3106 3106 3107 3108 3110 3110 3111 3111 3110 3109 3109 3109 3110 3110 3110 3110 3110 3109 3110 3110 3110 3110 3111 3111 3112 3113 3114 3117 3119 3118 3118 3118 3118 3118 3118 3118 3118 3118 3118 3117 3117 3118 3119 3119 3120 3121 3123 3124 3124 3125 3126 3126 3128 3130 3131 3133 3134 3135 3138 3138 3137 3137 3140 3141 3140 3137 3134 3131 3129 3127 3127 3128 3129 3131 3133 3136 3138 3140 3142
3108 3108 3108 3108 3108 3109 3109 3108 3108 3108 3108 3109 3110 3111 3111 3111 3112 3112 3111 3110 3110 3110 3111 3111 3110 3110 3110 3111 3112 3111 3111 3112 3112 3113 3114 3116 3118 3119 3118 3118 3118 3118 3118 3118 3119 3119 3119 3119 3118 3116 3117 3119 3120 3121 3122 3123 3124 3125 3126 3126 3126 3127 3128 3130 3131 3132 3133 3135 3136 3136 3136 3139 3140 3140 3137 3133 3129 3127 3125 3124 3126 3127 3128 3130 3133 3135 3138 3140
3110 3109 3109 3109 3109 3109 3109 3109 3109 3109 3110 3111 3111 3111 3111 3112 3113 3113 3113 3112 3111 3111 3111 3112 3111 3110 3111 3112 3113 3113 3113 3113 3113 3114 3116 3118 3119 3119 3119 3119 3119 3118 3118 3118 3119 3119 3119 3120 3118 3116 3117 3118 3121 3123 3123 3125 3127 3128 3128 3129 3128 3128 3128 3129 3130 3131 3131 3132 3133 3132 3133 3137 3140 3138 3136 3133 3129 3125 3123 3122 3122 3123 3125 3127 3130 3133 3136 3138
3111 3110 3110 3110 3110 3110 3109 3109 3110 3111 3111 3111 3112 3112 3112 3113 3113 3114 3113 3113 3112 3111 3112 3112 3112 3112 3112 3113 3115 3115 3114 3115 3115 3115 3117 3119 3120 3120 3121 3120 3119 3119 3118 3119 3120 3120 3120 3120 3118 3117 3116 3116 3120 3123 3124 3125 3127 3128 3128 3129 3130 3129 3129 3131 3131 3131 3131 3131 3131 3130 3130 3134 3137 3136 3134 3132 3129 3125 3122 3120 3118 3117 3120 3124 3127 3131 3134 3137
3112 3112 3112 3112 3111 3112 3110 3110 3112 3112 3112 3113 3113 3113 3113 3113 3113 3114 3113 3113 3113 3113 3112 3112 3113 3113 3113 3114 3115 3115 3115 3117 3117 3117 3119 3119 3119 3120 3121 3120 3119 3119 3119 3119 3120 3121 3121 3120 3118 3116 3114 3114 3118 3122 3123 3124 3126 3127 3128 3129 3130 3130 3131 3131 3132 3132 3131 3131 3131 3131 3130 3130 3130 3131 3132 3132 3129 3125 3120 3118 3116 3115 3117 3120 3123 3127 3132 3136
3114 3114 3114 3113 3113 3113 3112 3112 3113 3113 3113 3114 3113 3113 3113 3113 3113 3113 3113 3113 3114 3114 3113 3113 3113 3114 3114 3114 3115 3115 3116 3117 3119 3119 3119 3119 3119 3120 3120 3119 3119 3119 3119 3120 3121 3121 3122 3121 3120 3119 3117 3115 3116 3119 3121 3120 3122 3125 3128 3129 3129 3130 3130 3129 3130 3131 3131 3131 3133 3132 3130 3128 3128 3129 3131 3130 3128 3125 3121 3118 3116 3114 3115 3117 3119 3124 3130 3134
3116 3115 3115 3114 3114 3113 3113 3114 3115 3115 3114 3114 3113 3113 3113 3113 3113 3114 3114 3114 3115 3115 3114 3113 3113 3114 3115 3115 3115 3116 3116 3117 3118 3119 3119 3119 3120 3120 3120 3120 3119 3120 3120 3120 3121 3122 3123 3123 3122 3122 3123 3121 3120 3122 3122 3121 3120 3122 3126 3129 3129 3129 3129 3130 3130 3130 3131 3131 3131 3131 3129 3128 3128 3128 3128 3128 3127 3125 3123 3120 3116 3114 3114 3115 3117 3121 3126 3129
3117 3116 3116 3115 3114 3114 3114 3116 3116 3116 3116 3114 3113 3114 3114 3114 3114 3114 3114 3115 3115 3115 3114 3113 3114 3114 3115 3115 3115 3116 3117 3117 3118 3118 3119 3120 3120 3121 3121 3121 3120 3120 3121 3121 3121 3122 3123 3123 3123 3123 3124 3125 3124 3124 3125 3123 3120 3119 3122 3125 3129 3129 3129 3130 3131 3131 3131 3131 3129 3130 3128 3127 3127 3126 3126 3126 3125 3125 3124 3122 3117 3115 3115 3115 3116 3119 3122 3125
3118 3117 3116 3116 3115 3115 3115 3116 3116 3116 3116 3115 3114 3115 3115 3115 3115 3115 3114 3115 3115 3115 3114 3114 3114 3115 3115 3115 3116 3117 3117 3117 3117 3118 3119 3120 3121 3121 3121 3121 3120 3120 3121 3121 3121 3122 3123 3123 3124 3124 3124 3125 3124 3124 3124 3124 3122 3119 3118 3119 3124 3128 3128 3129 3130 3130 3130 3130 3128 3128 3128 3128 3127 3127 3125 3125 3125 3125 3125 3123 3119 3117 3116 3116 3115 3116 3119 3122
3119 3118 3118 3117 3117 3116 3116 3116 3116 3116 3116 3116 3116 3116 3116 3115 3115 3115 3115 3115 3115 3114 3114 3115 3115 3115 3116 3116 3116 3117 3117 3117 3117 3118 3118 3119 3120 3121 3121 3120 3120 3120 3121 3121 3121 3122 3123 3123 3123 3124 3124 3124 3124 3124 3124 3124 3122 3121 3119 3117 3119 3124 3127 3127 3128 3128 3129 3128 3127 3127 3128 3128 3128 3127 3125 3125 3124 3124 3124 3124 3121 3119 3119 3118 3115 3115 3118 3120
3120 3119 3119 3118 3118 3118 3117 3117 3117 3117 3117 3117 3116 3116 3116 3116 3116 3116 3116 3115 3115 3115 3115 3116 3116 3116 3116 3117 3117 3117 3117 3118 3119 3119 3118 3118 3118 3118 3119 3119 3119 3120 3120 3121 3121 3122 3122 3123 3123 3123 3122 3123 3123 3124 3123 3123 3121 3121 3121 3119 3117 3119 3122 3124 3125 3126 3127 3126 3126 3126 3127 3127 3127 3126 3124 3124 3124 3123 3123 3124 3123 3121 3121 3120 3116 3116 3118 3119
3121 3120 3120 3119 3119 3118 3118 3118 3118 3118 3117 3117 3117 3117 3116 3116 3116 3116 3116 3116 3116 3116 3116 3117 3117 3117 3117 3117 3117 3117 3118 3119 3119 3119 3119 3118 3118 3118 3118 3119 3119 3119 3120 3120 3121 3121 3122 3123 3122 3122 3121 3121 3122 3123 3122 3122 3120 3118 3118 3119 3118 3117 3118 3119 3121 3123 3124 3123 3123 3123 3124 3124 3125 3124 3122 3121 3123 3123 3122 3123 3124 3122 3120 3120 3118 3117 3118 3119
3122 3122 3121 3121 3120 3119 3120 3119 3118 3118 3117 3117 3117 3117 3117 3117 3117 3117 3117 3117 3117 3118 3118 3118 3118 3117 3118 3118 3118 3118 3119 3119 3119 3119 3119 3119 3119 3119 3119 3120 3120 3120 3120 3120 3120 3120 3121 3122 3121 3121 3121 3120 3121 3122 3121 3120 3119 3116 3116 3117 3118 3117 3117 3117 3119 3119 3120 3120 3121 3121 3121 3121 3122 3122 3120 3119 3120 3122 3121 3121 3123 3122 3120 3119 3119 3118 3118 3119
3123 3123 3122 3122 3121 3120 3120 3119 3118 3118 3117 3117 3117 3117 3117 3118 3118 3118 3118 3118 3118 3119 3119 3119 3119 3119 3119 3119 3119 3119 3120 3120 3119 3119 3119 3119 3119 3119 3119 3120 3120 3119 3119 3120 3120 3120 3120 3120 3120 3120 3120 3119 3121 3121 3120 3120 3117 3114 3114 3116 3117 3117 3117 3116 3117 3117 3117 3118 3119 3120 3119 3117 3118 3119 3118 3116 3117 3119 3119 3119 3119 3120 3119 3118 3119 3119 3119 3119